CW4611 Weather Reports


Display with metric or nautical units.
time (UTC)temp
F
wind
direction
speed
MPH
gust
MPH
rain 1hr
in
rain 24hr
in
rain mn
in
humidity
%
barometer
mb
20240523111604 34 15 0.0 2.0 0.00 0.00 0.00 70 1011.6
20240523111104 34 14 0.0 1.0 0.00 0.00 0.00 71 1011.5
20240523110603 34 14 0.0 3.0 0.00 0.00 0.00 68 1011.8
20240523110104 34 15 1.0 3.0 0.00 0.00 0.00 68 1011.8
20240523103604 36 14 2.0 7.0 0.00 0.00 0.00 64 1012.0
20240523101604 37 13 2.0 6.0 0.00 0.00 0.00 60 1011.5
20240523101104 38 14 3.0 10.0 0.00 0.00 0.00 61 1011.3
20240523100604 38 14 3.0 8.0 0.00 0.00 0.00 60 1011.3
20240523100104 38 14 2.0 10.0 0.00 0.00 0.00 62 1011.1
20240523094604 38 14 2.0 6.0 0.00 0.00 0.00 63 1010.9
20240523094105 38 14 2.0 5.0 0.00 0.00 0.00 65 1010.9
20240523093604 39 14 1.0 3.0 0.00 0.00 0.00 66 1010.9
20240523093104 39 13 1.0 6.0 0.00 0.00 0.00 67 1010.9
20240523091604 39 15 2.0 12.0 0.00 0.00 0.00 66 1010.8
20240523090604 39 13 0.0 3.0 0.00 0.00 0.00 65 1010.7
20240523084604 40 14 1.0 3.0 0.00 0.00 0.00 60 1010.6
20240523084104 40 12 2.0 3.0 0.00 0.00 0.00 60 1010.6
20240523083104 41 13 3.0 7.0 0.00 0.00 0.00 64 1010.2
20240523081604 41 13 2.0 6.0 0.00 0.00 0.00 63 1010.3
20240523080604 41 14 3.0 8.0 0.00 0.00 0.00 62 1010.2
20240523080104 42 13 3.0 12.0 0.00 0.00 0.00 63 1010.2
20240523074604 42 12 2.0 6.0 0.00 0.00 0.00 62 1009.8
20240523074104 42 14 3.0 10.0 0.00 0.00 0.00 61 1009.7
20240523071604 44 13 4.0 10.0 0.00 0.00 0.00 62 1009.6
20240523071104 44 14 3.0 13.0 0.00 0.00 0.00 62 1009.6
20240523070605 45 13 3.0 7.0 0.00 0.00 0.00 62 1009.3
20240523064606 46 13 3.0 12.0 0.00 0.00 0.00 57 1009.2
20240523064105 47 13 8.0 18.0 0.00 0.00 0.00 55 1009.0
20240523063605 47 13 3.0 15.0 0.00 0.00 0.00 53 1008.7
20240523061606 50 12 3.0 6.0 0.00 0.00 0.00 44 1008.3
20240523060606 50 14 2.0 10.0 0.00 0.00 0.00 41 1008.2
20240523054105 51 9 2.0 3.0 0.00 0.00 0.00 36 1007.8
20240523053605 52 12 3.0 12.0 0.00 0.00 0.00 35 1007.6
20240523051607 52 13 3.0 6.0 0.00 0.00 0.00 32 1007.7
20240523051106 52 12 2.0 7.0 0.00 0.00 0.00 32 1007.7
20240523050606 52 15 5.0 17.0 0.00 0.00 0.00 32 1007.9
20240523050105 52 11 2.0 13.0 0.00 0.00 0.00 33 1007.9
20240523044605 51 15 1.0 2.0 0.00 0.00 0.00 32 1007.4
20240523044106 51 12 0.0 2.0 0.00 0.00 0.00 32 1007.4
20240523043606 52 175 0.0 2.0 0.00 0.00 0.00 32 1007.5
20240523043106 52 196 0.0 3.0 0.00 0.00 0.00 33 1007.4
20240523041605 53 328 2.0 12.0 0.00 0.00 0.00 30 1007.7
20240523041106 52 106 3.0 7.0 0.00 0.00 0.00 30 1007.7
20240523040605 53 329 1.0 3.0 0.00 0.00 0.00 31 1007.8
20240523040105 53 306 0.0 3.0 0.00 0.00 0.00 29 1007.8
20240523034605 53 295 3.0 9.0 0.00 0.00 0.00 29 1007.8
20240523034105 53 326 1.0 3.0 0.00 0.00 0.00 28 1007.8
20240523033605 53 290 2.0 6.0 0.00 0.00 0.00 28 1007.9
20240523033106 53 236 4.0 10.0 0.00 0.00 0.00 29 1007.9
20240523031605 53 168 1.0 2.0 0.00 0.00 0.00 29 1008.1
20240523031105 53 236 3.0 12.0 0.00 0.00 0.00 28 1008.1
20240523030605 53 221 2.0 5.0 0.00 0.00 0.00 29 1008.2
20240523030105 53 38 1.0 3.0 0.00 0.00 0.00 28 1008.4
20240523024605 54 271 1.0 3.0 0.00 0.00 0.00 27 1008.5
20240523024106 54 173 1.0 3.0 0.00 0.00 0.00 27 1008.8
20240523023605 54 202 1.0 3.0 0.00 0.00 0.00 26 1008.9
20240523021605 55 209 3.0 10.0 0.00 0.00 0.00 25 1009.0
20240523021105 55 205 0.0 3.0 0.00 0.00 0.00 26 1009.2
20240523020605 56 194 2.0 3.0 0.00 0.00 0.00 26 1009.2
20240523014606 56 13 2.0 3.0 0.00 0.00 0.00 25 1009.5
20240523013605 56 256 2.0 7.0 0.00 0.00 0.00 23 1009.6
20240523013105 56 270 3.0 12.0 0.00 0.00 0.00 23 1009.8
20240523011605 57 221 2.0 9.0 0.00 0.00 0.00 24 1010.0
20240523011105 57 224 3.0 12.0 0.00 0.00 0.00 24 1010.0
20240523010105 57 235 5.0 12.0 0.00 0.00 0.00 23 1010.3
20240523004605 58 219 5.0 14.0 0.00 0.00 0.00 23 1010.4
20240523004105 58 210 3.0 9.0 0.00 0.00 0.00 23 1010.5
20240523003605 58 197 3.0 14.0 0.00 0.00 0.00 22 1010.4
20240523003105 58 195 5.0 14.0 0.00 0.00 0.00 22 1010.5
20240523001605 59 185 5.0 9.0 0.00 0.00 0.00 23 1010.7
20240523000606 59 191 6.0 14.0 0.00 0.00 0.00 22 1011.0
20240523000105 58 193 5.0 13.0 0.00 0.00 0.00 22 1011.1
20240522234605 60 223 5.0 13.0 0.00 0.00 0.00 21 1011.3
20240522233605 60 75 5.0 13.0 0.00 0.00 0.00 23 1011.4
20240522233105 60 293 7.0 18.0 0.00 0.00 0.00 21 1011.3
20240522231605 60 245 9.0 23.0 0.00 0.00 0.00 20 1011.6
20240522231105 60 197 4.0 16.0 0.00 0.00 0.00 20 1011.8
20240522230605 61 178 5.0 17.0 0.00 0.00 0.00 20 1012.0
20240522230105 61 249 6.0 17.0 0.00 0.00 0.00 20 1012.1
20240522224605 61 208 7.0 18.0 0.00 0.00 0.00 22 1012.4
20240522223605 59 215 5.0 12.0 0.00 0.00 0.00 22 1012.5
20240522223105 59 152 4.0 15.0 0.00 0.00 0.00 21 1012.6
20240522221605 59 213 2.0 7.0 0.00 0.00 0.00 22 1012.8
20240522220605 59 288 5.0 12.0 0.00 0.00 0.00 22 1013.0
20240522220106 58 235 5.0 22.0 0.00 0.00 0.00 21 1013.1
20240522214106 59 218 5.0 20.0 0.00 0.00 0.00 23 1013.5
20240522213107 57 211 5.0 13.0 0.00 0.00 0.00 23 1013.8
20240522211605 56 215 5.0 14.0 0.00 0.00 0.00 23 1014.2
20240522211105 56 257 5.0 13.0 0.00 0.00 0.00 24 1014.3
20240522210605 56 230 6.0 12.0 0.00 0.00 0.00 22 1014.4
20240522210105 56 274 3.0 20.0 0.00 0.00 0.00 22 1014.5
20240522204605 57 268 5.0 22.0 0.00 0.00 0.00 23 1014.5
20240522204105 58 258 5.0 23.0 0.00 0.00 0.00 21 1014.7
20240522203605 58 175 8.0 16.0 0.00 0.00 0.00 20 1014.6
20240522203105 59 184 6.0 21.0 0.00 0.00 0.00 22 1014.9
20240522201604 56 233 6.0 18.0 0.00 0.00 0.00 25 1015.1
20240522200105 55 227 5.0 18.0 0.00 0.00 0.00 24 1015.4
20240522194604 54 125 5.0 23.0 0.00 0.00 0.00 21 1015.5
20240522194105 55 281 5.0 13.0 0.00 0.00 0.00 23 1015.5
20240522193605 55 282 5.0 16.0 0.00 0.00 0.00 23 1015.6
20240522193105 55 251 5.0 20.0 0.00 0.00 0.00 23 1015.6
20240522191605 55 251 4.0 10.0 0.00 0.00 0.00 23 1015.9
20240522191105 55 274 3.0 12.0 0.00 0.00 0.00 23 1015.9
20240522190605 55 277 8.0 20.0 0.00 0.00 0.00 21 1015.9
20240522184605 56 224 5.0 14.0 0.00 0.00 0.00 22 1016.1
20240522184105 56 259 7.0 18.0 0.00 0.00 0.00 21 1016.0
20240522183605 56 295 4.0 17.0 0.00 0.00 0.00 23 1016.0
20240522183105 57 294 6.0 20.0 0.00 0.00 0.00 21 1016.2
20240522181605 57 218 6.0 16.0 0.00 0.00 0.00 20 1016.3
20240522181105 58 243 5.0 15.0 0.00 0.00 0.00 22 1016.5
20240522180604 58 211 5.0 17.0 0.00 0.00 0.00 24 1016.5
20240522180105 57 223 4.0 17.0 0.00 0.00 0.00 23 1016.5
20240522174604 56 226 4.0 16.0 0.00 0.00 0.00 23 1017.0
20240522174105 56 236 6.0 16.0 0.00 0.00 0.00 24 1017.0
20240522173605 56 215 7.0 17.0 0.00 0.00 0.00 22 1017.0
20240522173105 56 176 6.0 16.0 0.00 0.00 0.00 24 1017.1
20240522171605 57 241 6.0 20.0 0.00 0.00 0.00 21 1017.2
20240522171105 56 250 3.0 12.0 0.00 0.00 0.00 23 1017.1
20240522170105 55 177 6.0 17.0 0.00 0.00 0.00 23 1017.2
20240522164605 55 285 4.0 10.0 0.00 0.00 0.00 25 1017.3
20240522164105 55 230 4.0 12.0 0.00 0.00 0.00 24 1017.5
20240522163604 55 256 6.0 14.0 0.00 0.00 0.00 24 1017.5
20240522163104 54 243 3.0 15.0 0.00 0.00 0.00 24 1017.5
20240522161104 52 237 3.0 7.0 0.00 0.00 0.00 26 1017.7
20240522160605 51 271 2.0 5.0 0.00 0.00 0.00 26 1017.9
20240522160105 51 258 2.0 5.0 0.00 0.00 0.00 26 1017.9
20240522154605 51 258 3.0 6.0 0.00 0.00 0.00 24 1018.1
20240522153605 51 242 1.0 3.0 0.00 0.00 0.00 26 1018.3
20240522153105 51 223 2.0 8.0 0.00 0.00 0.00 27 1018.4
20240522151605 50 198 1.0 5.0 0.00 0.00 0.00 28 1018.6
20240522151104 50 268 3.0 7.0 0.00 0.00 0.00 25 1018.7
20240522150604 50 271 1.0 3.0 0.00 0.00 0.00 25 1018.7
20240522150104 49 101 2.0 7.0 0.00 0.00 0.00 26 1018.8
20240522144605 47 10 2.0 3.0 0.00 0.00 0.00 27 1019.0
20240522144104 46 10 2.0 7.0 0.00 0.00 0.00 27 1019.0
20240522143105 46 11 3.0 13.0 0.00 0.00 0.00 28 1019.0
20240522141605 44 10 1.0 7.0 0.00 0.01 0.00 28 1019.3
20240522141104 44 9 3.0 7.0 0.00 0.01 0.00 30 1019.4
20240522140605 43 13 2.0 3.0 0.00 0.01 0.00 34 1019.5
20240522140105 42 11 1.0 9.0 0.00 0.01 0.00 33 1019.6
20240522134605 41 13 1.0 3.0 0.00 0.01 0.00 36 1019.9
20240522133605 40 9 3.0 10.0 0.00 0.01 0.00 41 1020.3
20240522133105 39 12 4.0 7.0 0.00 0.01 0.00 38 1020.2
20240522131604 38 10 4.0 7.0 0.00 0.01 0.00 45 1020.3
20240522131104 37 9 2.0 5.0 0.00 0.01 0.00 46 1020.4
20240522130604 37 9 2.0 6.0 0.00 0.01 0.00 48 1020.5
20240522130104 37 9 2.0 6.0 0.00 0.01 0.00 46 1020.5
20240522124605 35 9 1.0 3.0 0.00 0.01 0.00 52 1020.7
20240522124105 35 9 2.0 3.0 0.00 0.01 0.00 48 1020.8
20240522123604 35 9 3.0 6.0 0.00 0.01 0.00 51 1020.9
20240522123104 35 9 1.0 3.0 0.00 0.01 0.00 55 1021.0
20240522120104 36 9 5.0 12.0 0.00 0.01 0.00 42 1021.6
20240522114604 35 9 3.0 6.0 0.00 0.01 0.00 45 1021.7
20240522114105 35 10 4.0 8.0 0.00 0.01 0.00 44 1021.8
20240522113604 35 10 3.0 10.0 0.00 0.01 0.00 45 1021.8
20240522113104 35 9 2.0 10.0 0.00 0.01 0.00 49 1021.9